This demonstration page uses our WeatherBlox Daily Observations layout. Learn more.

Left ArrowRight Arrow

40.92945, -100.16068

Hourly Observations for October 17, 2021

Temp ( °F °C ) Dew Point ( °F °C ) Humidity (%) Winds ( mph kmh ) Pressure ( in mb ) Visibility ( mi km ) Precip ( " mm )
12:15 am 00:15 Clear 37 2.9 34 1.1 88 88 NNE 3 6 30.31 1026 10 16 N/A
12:35 am 00:35 Clear 38 3.2 34 1.3 88 88 N 3 6 30.31 1026 10 16 N/A
12:55 am 00:55 Clear 38 3.5 34 1.2 85 85 N 3 6 30.30 1026 10 16 N/A
1:15 am 01:15 Clear 38 3.1 34 1 86 86 N N/A 30.31 1026 10 16 N/A
1:35 am 01:35 Clear 38 3.1 34 1 86 86 N N/A 30.30 1026 10 16 N/A
1:55 am 01:55 Clear 37 2.5 34 0.9 89 89 N N/A 30.30 1026 10 16 N/A
2:15 am 02:15 Clear 36 2.1 33 0.5 89 89 N N/A 30.31 1026 10 16 N/A
2:35 am 02:35 Clear 36 2.1 33 0.6 90 90 N N/A 30.31 1026 10 16 N/A
2:55 am 02:55 Clear 36 2 33 0.5 90 90 N N/A 30.31 1026 10 16 N/A
3:15 am 03:15 Clear 34 1.3 32 undefined 91 91 N N/A 30.31 1027 10 16 N/A
3:35 am 03:35 Clear 35 1.4 32 undefined 91 91 N N/A 30.30 1026 10 16 N/A
3:55 am 03:55 Clear 34 1.2 32 0.1 92 92 N N/A 30.31 1026 10 16 N/A
4:15 am 04:15 Clear 34 1 32 undefined 93 93 N N/A 30.31 1026 10 16 N/A
4:35 am 04:35 Clear 34 1.3 32 undefined 91 91 N N/A 30.29 1026 10 16 N/A
4:55 am 04:55 Clear 33 0.5 31 -0.5 93 93 N N/A 30.30 1026 10 16 N/A
5:15 am 05:15 Clear 33 0.8 32 -0.1 94 94 N N/A 30.30 1026 10 16 N/A
5:35 am 05:35 Clear 33 0.7 32 undefined 95 95 N N/A 30.30 1026 10 16 N/A
5:55 am 05:55 Clear 34 1 32 undefined 93 93 NW 3 6 30.30 1026 10 16 N/A
6:15 am 06:15 Clear 33 0.6 32 -0.1 95 95 N N/A 30.30 1026 10 16 N/A
6:35 am 06:35 Clear 32 0.2 31 -0.5 95 95 N N/A 30.30 1026 10 16 N/A
6:55 am 06:55 Clear 33 0.4 31 -0.3 95 95 N N/A 30.29 1026 10 16 N/A
7:15 am 07:15 Clear 32 undefined 31 -0.5 96 96 N N/A 30.30 1026 10 16 N/A
7:35 am 07:35 Clear 32 0.1 31 -0.4 96 96 N N/A 30.30 1026 10 16 N/A
7:55 am 07:55 Sunny 32 -0.2 30 -1.2 93 93 WNW 3 6 30.30 1026 10 16 N/A
8:15 am 08:15 Sunny 31 -0.4 29 -1.4 93 93 N N/A 30.30 1026 10 16 N/A
8:35 am 08:35 Partly Cloudy 33 0.3 31 -0.5 94 94 N N/A 30.29 1026 7 11 N/A
8:55 am 08:55 Partly Cloudy 36 2.2 35 1.4 95 95 N N/A 30.28 1025 10 16 N/A
9:15 am 09:15 Sunny 40 4.5 38 3.1 91 91 N N/A 30.25 1024 10 16 N/A
9:35 am 09:35 Sunny 43 6.2 39 3.7 84 84 N N/A 30.24 1024 10 16 N/A
9:55 am 09:55 Sunny 46 8 41 5 82 82 N N/A 30.22 1023 10 16 N/A
10:15 am 10:15 Sunny 50 10.2 41 5.1 71 71 N N/A 30.20 1023 10 16 N/A
10:35 am 10:35 Sunny 54 12 41 4.9 62 62 N N/A 30.18 1022 10 16 N/A
10:55 am 10:55 Sunny 57 13.8 42 5.5 58 58 N N/A 30.17 1022 10 16 N/A
11:15 am 11:15 Sunny 62 16.4 40 4.7 46 46 S 3 6 30.14 1021 10 16 N/A
11:35 am 11:35 Sunny 66 18.8 38 3.1 35 35 SW 5 7 30.11 1020 10 16 N/A
11:55 am 11:55 Sunny 68 19.9 37 2.5 32 32 SSW 12 19 30.10 1019 10 16 N/A
12:15 pm 12:15 Sunny 69 20.4 36 2 30 30 SSW 12 19 30.09 1019 10 16 N/A
12:35 pm 12:35 Sunny 69 20.8 35 1.7 28 28 SW 12 19 30.08 1019 10 16 N/A
12:55 pm 12:55 Sunny 70 21.1 36 2.1 29 29 SW 10 17 30.07 1018 10 16 N/A
1:15 pm 13:15 Sunny 71 21.9 36 2.1 27 27 SW 10 17 30.06 1018 10 16 N/A
1:35 pm 13:35 Sunny 72 22.3 36 2.2 27 27 SW 13 20 30.03 1017 10 16 N/A
1:55 pm 13:55 Sunny 73 22.6 35 1.9 26 26 S 15 24 30.02 1017 10 16 N/A
2:15 pm 14:15 Sunny 73 22.5 35 1.4 25 25 SW 14 22 30.01 1016 10 16 N/A
2:35 pm 14:35 Sunny 73 22.9 35 1.9 25 25 SSW 13 20 30.00 1016 10 16 N/A
2:55 pm 14:55 Sunny 73 23 37 2.8 27 27 S 13 20 29.99 1015 10 16 N/A
3:15 pm 15:15 Sunny 74 23.5 37 2.5 25 25 SSW 13 20 29.97 1015 10 16 N/A
3:35 pm 15:35 Sunny 74 23.4 36 2.1 25 25 SSW 15 24 29.96 1015 10 16 N/A
3:55 pm 15:55 Sunny 74 23.6 35 1.7 24 24 SSW 16 26 29.95 1014 10 16 N/A
4:15 pm 16:15 Sunny 75 23.9 35 1.9 24 24 S 13 20 29.94 1014 10 16 N/A
4:35 pm 16:35 Sunny 75 23.7 35 1.6 23 23 S 14 22 29.94 1014 10 16 N/A
4:55 pm 16:55 Sunny 74 23.6 34 1.3 23 23 S 15 24 29.93 1014 10 16 N/A
5:15 pm 17:15 Sunny 74 23.4 35 1.8 24 24 S 14 22 29.92 1013 10 16 N/A
5:35 pm 17:35 Sunny 73 22.8 36 2.4 26 26 S 13 20 29.93 1013 10 16 N/A
5:55 pm 17:55 Sunny 71 21.9 37 2.6 28 28 S 13 20 29.93 1013 10 16 N/A
6:15 pm 18:15 Sunny 69 20.8 37 2.9 31 31 S 10 17 29.94 1014 10 16 N/A
6:35 pm 18:35 Sunny 66 19.1 38 3.1 35 35 S 9 15 29.95 1014 10 16 N/A
6:55 pm 18:55 Sunny 62 16.4 38 3.4 42 42 SSE 8 13 29.97 1015 10 16 N/A
7:15 pm 19:15 Clear 58 14.6 38 3.4 47 47 SSE 7 11 29.99 1016 10 16 N/A
7:35 pm 19:35 Clear 59 14.9 37 2.9 45 45 SSE 8 13 29.99 1015 10 16 N/A
7:55 pm 19:55 Clear 58 14.7 37 2.7 45 45 SE 6 9 29.99 1016 10 16 N/A
8:15 pm 20:15 Clear 57 13.7 37 2.9 48 48 SE 6 9 30.00 1016 10 16 N/A
8:35 pm 20:35 Clear 55 12.9 37 2.8 51 51 SE 5 7 30.00 1016 10 16 N/A
8:55 pm 20:55 Clear 55 12.8 37 2.8 51 51 SE 6 9 30.01 1016 10 16 N/A
9:15 pm 21:15 Clear 56 13.1 37 3 51 51 SE 7 11 30.00 1016 10 16 N/A
9:35 pm 21:35 Clear 54 12.4 37 3 53 53 SE 6 9 30.01 1016 10 16 N/A
9:55 pm 21:55 Clear 53 11.6 38 3.5 58 58 SE 6 9 30.02 1016 10 16 N/A
10:15 pm 22:15 Clear 53 11.7 38 3.5 57 57 SE 7 11 30.01 1016 10 16 N/A
10:35 pm 22:35 Clear 53 11.7 38 3.5 57 57 SE 6 9 30.01 1016 10 16 N/A
10:55 pm 22:55 Clear 53 11.6 38 3.5 58 58 SE 6 9 30.01 1016 10 16 N/A
11:15 pm 23:15 Clear 52 10.9 38 3.5 61 61 SE 5 7 30.01 1016 10 16 N/A
11:35 pm 23:35 Clear 52 10.9 38 3.5 61 61 SE 7 11 30.00 1016 10 16 N/A
11:55 pm 23:55 Clear 51 10.3 39 3.8 64 64 SSE 7 11 30.01 1016 10 16 N/A

Powered by AerisWeather